Date,TemperatureHighF,TemperatureAvgF,TemperatureLowF,DewpointHighF,DewpointAvgF,DewpointLowF,HumidityHigh,HumidityAvg,HumidityLow,PressureMaxIn,PressureMinIn,WindSpeedMaxMPH,WindSpeedAvgMPH,GustSpeedMaxMPH,PrecipitationSumIn
2013-1-1,24,22,20,21,20,18,95,90,82,0.00,40.00,1,0,4,0.01
2013-1-2,36,18,7,24,15,4,93,87,61,0.00,40.00,1,0,4,0.14
2013-1-3,31,11,0,23,7,-4,92,84,72,0.00,40.00,2,0,3,0.14
2013-1-4,33,22,6,29,20,3,97,91,84,0.00,40.00,1,0,3,0.04
2013-1-5,39,27,21,32,26,20,98,94,75,0.00,40.00,1,0,3,0.10
2013-1-6,31,28,22,29,26,21,98,96,89,0.00,40.00,1,0,4,0.01
2013-1-7,32,28,22,31,27,21,99,96,95,0.00,40.00,0,0,2,0.00
2013-1-8,38,32,29,35,31,29,99,96,88,0.00,40.00,0,0,2,0.20
2013-2-1,42,34,27,38,33,27,99,95,84,0.00,40.00,1,0,4,0.36
2013-2-2,47,28,18,39,26,16,99,93,73,0.00,40.00,1,0,4,0.21
2013-2-3,46,27,16,37,25,14,99,92,69,0.00,40.00,1,0,7,0.01
2013-2-4,46,32,26,35,30,26,99,93,59,0.00,40.00,2,0,7,0.00
2013-2-5,46,34,27,38,32,27,99,91,62,0.00,40.00,3,0,10,0.03
2013-2-6,43,33,24,37,30,23,99,92,56,0.00,40.00,2,0,8,0.03
2013-2-7,46,32,25,37,29,24,99,92,62,0.00,40.00,1,0,8,0.01
2013-2-8,35,32,29,31,30,28,98,93,83,0.00,40.00,1,0,4,0.12
2013-2-9,32,29,24,29,27,23,97,92,81,0.00,40.00,1,0,6,0.01
2013-2-10,37,28,22,29,25,21,97,88,68,0.00,40.00,2,0,4,0.02
2013-2-11,39,30,25,32,27,24,98,88,63,0.00,40.00,3,0,7,0.02
2013-2-12,42,33,29,34,31,28,97,92,71,0.00,40.00,2,0,7,0.00
2013-2-13,44,35,29,34,31,28,98,88,56,0.00,40.00,3,1,12,0.00
2013-2-14,43,33,25,31,28,24,98,85,55,0.00,40.00,2,0,7,0.00
2013-2-15,53,35,24,34,29,23,98,84,44,0.00,40.00,2,0,8,0.00
2013-2-16,57,32,18,37,29,16,99,87,39,0.00,40.00,5,1,14,0.19
2013-2-17,38,32,29,33,31,29,99,93,80,0.00,40.00,1,0,7,0.22
2013-2-18,44,30,18,36,28,16,99,91,63,0.00,40.00,2,0,5,0.05
2013-2-19,40,31,25,34,29,24,98,92,75,0.00,40.00,1,0,5,0.02
2013-2-20,37,30,18,30,25,15,98,85,60,0.00,40.00,2,0,7,0.01
2013-2-21,37,26,14,30,23,11,98,87,54,0.00,40.00,5,1,11,0.00
2013-2-22,37,32,29,33,30,29,98,93,83,0.00,40.00,4,1,8,0.19
2013-2-23,35,31,27,31,28,26,97,89,76,0.00,40.00,2,0,13,0.06
2013-2-24,42,31,26,31,27,25,97,89,63,0.00,40.00,1,0,6,0.25
2013-2-25,41,30,23,35,29,22,98,93,77,0.00,40.00,3,1,10,0.28
2013-2-26,41,29,21,29,26,20,97,89,56,0.00,40.00,3,0,8,0.09
2013-2-27,46,30,20,34,25,18,98,84,45,0.00,40.00,6,1,11,0.04
2013-2-28,40,34,29,36,32,28,99,95,87,0.00,40.00,2,0,6,0.53
2013-3-1,44,35,28,40,34,28,99,96,87,0.00,40.00,2,0,4,0.25
2013-3-2,46,34,26,40,32,25,99,95,80,0.00,40.00,2,0,4,0.30
2013-3-3,39,32,21,36,28,20,100,86,51,0.00,40.00,5,1,13,0.45
2013-3-4,44,26,14,29,19,11,95,79,35,0.00,40.00,4,1,9,0.01
2013-3-5,48,30,14,31,23,11,94,80,36,0.00,40.00,3,0,9,0.01
2013-3-6,50,36,29,39,32,28,99,86,55,0.00,40.00,5,1,16,0.11
2013-3-7,50,34,23,39,31,22,99,89,46,0.00,40.00,3,0,6,0.30
2013-3-8,51,28,17,33,21,9,96,79,18,0.00,40.00,3,0,10,0.09
2013-3-9,43,32,20,31,26,19,96,80,47,0.00,40.00,2,0,7,0.00
2013-3-10,49,34,19,33,26,17,98,78,32,0.00,40.00,3,0,8,0.04
2013-3-11,50,36,27,36,31,26,99,86,48,0.00,40.00,3,1,11,0.10
2013-3-12,45,35,27,40,33,26,99,93,81,0.00,40.00,1,0,6,0.10
2013-3-13,51,37,32,43,35,32,99,94,74,0.00,40.00,3,0,4,0.04
2013-3-14,47,35,29,39,32,29,98,92,72,0.00,40.00,2,0,4,0.00
2013-3-15,55,39,29,39,34,28,98,85,50,0.00,40.00,3,0,11,0.00
2013-3-16,46,36,29,38,33,28,98,89,68,0.00,40.00,4,1,9,0.15
2013-3-17,39,32,29,32,29,27,98,90,72,0.00,40.00,3,1,14,0.50
2013-3-18,45,32,28,34,30,27,98,90,64,0.00,40.00,4,1,11,0.25
2013-3-19,49,32,17,35,27,15,97,84,56,0.00,40.00,4,1,11,0.01
2013-3-20,52,37,31,45,35,31,99,94,71,0.00,40.00,3,1,19,0.61
2013-3-21,36,30,27,32,28,26,99,90,72,0.00,40.00,3,1,15,0.19
2013-3-22,37,30,27,27,26,24,96,85,63,0.00,40.00,2,1,10,0.19
2013-3-23,42,28,18,27,24,16,96,86,55,0.00,40.00,2,0,8,0.21
2013-3-24,45,27,10,26,19,7,96,75,31,0.00,40.00,4,1,13,0.01
2013-3-25,52,30,14,32,22,11,95,75,30,0.00,40.00,4,1,10,0.01
2013-3-26,58,36,23,34,29,22,96,80,32,0.00,40.00,2,0,9,0.00
2013-3-27,62,40,28,42,32,27,95,77,35,0.00,40.00,4,1,11,0.01
2013-3-28,53,43,33,42,37,32,95,80,56,0.00,40.00,2,0,6,0.01
2013-3-29,51,39,34,45,36,32,96,91,72,0.00,40.00,4,0,7,0.06
2013-3-30,61,39,27,43,32,26,97,80,36,0.00,40.00,3,1,11,0.04
2013-3-31,66,39,25,39,30,24,98,77,29,0.00,40.00,3,1,9,0.00
2013-4-1,67,41,27,40,31,26,96,75,32,0.00,40.00,2,1,9,0.00
2013-4-2,61,42,28,42,34,27,96,79,47,0.00,40.00,3,1,10,0.00
2013-4-3,63,44,30,43,35,29,97,75,35,0.00,40.00,4,1,12,0.00
2013-4-4,57,42,31,47,39,29,98,89,68,0.00,40.00,3,1,9,0.12
2013-4-5,51,43,37,47,41,36,98,94,83,0.00,40.00,3,1,10,0.46
2013-4-6,47,41,37,44,39,36,98,94,82,0.00,40.00,3,1,10,0.54
2013-4-7,45,39,33,42,37,32,98,95,80,0.00,40.00,4,1,14,0.54
2013-4-8,42,36,28,38,33,27,98,91,78,0.00,40.00,3,1,13,0.26
2013-4-9,52,35,24,35,27,22,96,79,36,0.00,40.00,3,1,10,0.13
2013-4-10,48,42,34,45,38,32,98,88,62,0.00,40.00,2,0,11,0.22
2013-4-11,48,40,30,39,33,27,98,80,47,0.00,40.00,4,1,13,0.03
2013-4-12,57,41,30,41,31,22,97,75,26,0.00,40.00,5,1,15,0.43
2013-4-13,40,35,32,38,31,23,98,85,54,0.00,40.00,5,2,21,0.80
2013-4-14,43,34,28,34,31,27,98,87,57,0.00,40.00,4,0,8,0.39
2013-4-15,45,33,26,27,21,15,96,66,31,0.00,40.00,6,2,15,0.03
2013-4-16,41,33,27,22,12,8,78,45,27,0.00,40.00,6,3,15,0.00
2013-4-17,50,34,21,25,17,7,87,56,21,0.00,40.00,4,1,16,0.00
2013-4-18,48,35,23,33,26,19,92,72,36,0.00,40.00,6,1,13,0.00
2013-4-19,46,41,35,44,39,33,98,95,87,0.00,40.00,2,0,10,0.87
2013-4-20,53,44,40,42,39,34,99,86,51,0.00,40.00,4,1,14,0.12
2013-4-21,51,42,33,39,36,31,97,81,46,0.00,40.00,5,1,15,0.09
2013-4-22,49,37,27,32,21,12,96,61,22,0.00,40.00,5,2,15,0.04
2013-4-23,52,36,22,31,23,16,93,67,25,0.00,40.00,3,1,11,0.00
2013-4-24,60,41,24,37,27,22,95,66,26,0.00,40.00,5,1,13,0.00
2013-4-25,65,45,28,39,30,25,96,65,23,0.00,40.00,4,1,12,0.00
2013-4-26,70,48,28,46,35,27,96,68,25,0.00,40.00,4,1,13,0.00
2013-4-27,64,48,31,47,39,30,97,75,34,0.00,40.00,3,1,12,0.05
2013-4-28,58,48,41,45,41,33,98,79,42,0.00,40.00,3,1,14,0.14
2013-4-29,50,43,31,43,35,21,98,76,39,0.00,40.00,5,2,26,0.25
2013-4-30,43,34,26,32,27,20,95,79,42,0.00,40.00,5,1,12,0.04
2013-5-1,53,37,23,33,25,18,95,70,26,0.00,40.00,4,1,10,0.04
2013-5-2,67,43,24,39,27,15,95,65,14,0.00,40.00,5,1,13,0.01
2013-5-3,62,47,36,43,37,34,95,72,35,0.00,40.00,4,1,11,0.00
2013-5-4,66,49,30,38,32,28,97,62,25,0.00,40.00,7,2,19,0.00
2013-5-5,75,54,34,45,35,30,97,61,19,0.00,40.00,5,2,15,0.00
2013-5-6,80,55,34,47,37,30,98,64,17,0.00,40.00,3,1,10,0.00
2013-5-7,81,57,34,48,37,28,97,61,15,0.00,40.00,4,1,13,0.00
2013-5-8,81,59,39,51,42,38,96,64,22,0.00,40.00,5,1,11,0.00
2013-5-9,83,59,40,54,46,39,98,68,26,0.00,40.00,4,1,14,0.00
2013-5-10,84,63,40,53,41,-100,97,59,16,0.00,40.00,4,1,13,0.00
2013-5-11,84,61,42,56,45,39,96,66,21,0.00,40.00,4,1,10,0.00
2013-5-12,82,64,46,56,49,45,96,67,30,0.00,40.00,3,1,11,0.00
2013-5-13,76,58,47,58,50,46,97,79,38,0.00,40.00,5,1,13,0.41
2013-5-14,62,50,38,47,39,32,97,71,33,0.00,40.00,5,1,13,0.13
2013-5-15,64,47,31,42,36,30,96,71,34,0.00,40.00,4,1,10,0.00
2013-5-16,62,47,41,46,24,-100,95,74,46,0.00,40.00,2,0,8,0.00
2013-5-17,62,48,33,50,37,-100,97,81,48,0.00,40.00,3,1,10,0.26
2013-5-18,52,48,41,48,45,40,98,92,74,0.00,40.00,1,0,5,0.50
2013-5-19,57,48,38,50,43,37,98,86,55,0.00,40.00,3,1,9,0.03
2013-5-20,70,52,35,49,42,34,97,74,35,0.00,40.00,4,1,9,0.01
2013-5-21,77,52,36,52,40,34,97,72,21,0.00,40.00,5,2,19,0.05
2013-5-22,45,40,30,44,36,29,96,87,66,0.00,40.00,3,1,10,0.44
2013-5-23,61,45,29,41,31,25,96,67,27,0.00,40.00,4,1,11,0.02
2013-5-24,51,40,29,43,37,28,96,88,59,0.00,40.00,3,1,9,0.20
2013-5-25,60,45,30,41,34,29,97,72,35,0.00,40.00,4,1,9,0.01
2013-5-26,66,49,30,47,39,29,97,72,35,0.00,40.00,4,1,12,0.01
2013-5-27,65,54,47,48,44,37,95,73,36,0.00,40.00,5,2,14,0.02
2013-5-28,57,51,46,49,48,45,97,88,68,0.00,40.00,2,0,8,0.25
2013-5-29,62,49,38,48,44,37,97,85,45,0.00,40.00,5,1,15,0.50
2013-5-30,55,48,37,45,42,36,98,80,56,0.00,40.00,4,1,15,0.27
2013-5-31,64,48,36,45,38,35,96,72,34,0.00,40.00,4,1,11,0.02
2013-6-1,68,50,31,49,38,30,97,69,28,0.00,40.00,4,1,10,0.00
2013-6-2,64,51,36,51,41,35,95,72,40,0.00,40.00,5,1,19,0.00
2013-6-3,69,55,42,48,43,36,96,68,32,0.00,40.00,4,2,12,0.00
2013-6-4,73,55,36,51,42,35,97,69,29,0.00,40.00,4,1,13,0.00
2013-6-5,78,56,38,54,42,30,97,69,17,0.00,40.00,4,1,13,0.00
2013-6-6,83,63,45,56,47,43,94,64,25,0.00,40.00,4,1,12,0.00
2013-6-7,78,64,46,54,48,43,96,62,31,0.00,40.00,4,1,13,0.00
2013-6-8,76,60,40,47,41,32,94,57,21,0.00,40.00,5,2,12,0.00
2013-6-9,75,57,39,49,41,35,96,62,29,0.00,40.00,4,1,14,0.00
2013-6-10,79,58,36,47,38,26,96,59,16,0.00,40.00,3,1,11,0.00
2013-6-11,74,53,37,54,42,35,94,71,32,0.00,40.00,4,1,11,0.02
2013-6-12,68,55,45,49,43,37,95,68,36,0.00,40.00,4,1,11,0.09
2013-6-13,62,54,42,49,44,37,97,74,40,0.00,40.00,4,1,13,0.11
2013-6-14,63,51,40,45,41,37,94,71,40,0.00,40.00,4,1,13,0.00
2013-6-15,77,53,33,48,36,28,97,64,17,0.00,40.00,4,1,11,0.00
2013-6-16,87,57,36,50,38,31,95,63,14,0.00,40.00,2,1,10,0.00
2013-6-17,83,62,43,54,46,41,94,64,27,0.00,40.00,5,1,10,0.00
2013-6-18,70,58,45,53,49,43,95,75,50,0.00,40.00,3,1,10,0.01
2013-6-19,54,50,44,51,49,42,97,95,90,0.00,40.00,4,1,9,1.24
2013-6-20,57,47,43,48,44,41,97,90,54,0.00,40.00,4,3,15,1.20
2013-6-22,65,58,43,48,45,40,95,65,42,0.00,40.00,5,2,12,0.03
2013-6-23,74,56,37,56,45,36,97,72,31,0.00,40.00,3,1,10,0.00
2013-6-24,68,58,53,57,54,52,98,87,57,0.00,40.00,3,1,20,0.86
2013-6-25,69,57,48,59,53,47,98,88,55,0.00,40.00,5,1,18,0.95
2013-6-26,72,58,51,58,54,50,98,89,58,0.00,40.00,3,0,13,0.36
2013-6-27,85,65,47,62,55,46,98,77,36,0.00,40.00,3,1,9,0.01
2013-6-28,91,68,50,63,56,49,97,73,28,0.00,40.00,3,1,9,0.00
2013-6-29,91,70,52,66,59,51,97,72,34,0.00,40.00,4,1,12,0.00
2013-6-30,92,72,54,64,57,51,97,68,26,0.00,40.00,2,1,9,0.00
2013-7-1,101,71,51,67,58,50,97,71,20,0.00,40.00,3,0,8,0.00
2013-7-2,95,74,56,72,61,55,96,70,30,0.00,40.00,3,1,9,0.00
2013-7-3,88,72,57,64,57,52,97,66,31,0.00,40.00,3,1,10,0.00
2013-7-4,84,66,51,57,49,42,95,62,24,0.00,40.00,2,1,10,0.00
2013-7-5,80,63,45,54,49,44,96,65,33,0.00,40.00,4,1,12,0.00
2013-7-6,84,61,42,54,46,41,96,68,24,0.00,40.00,3,1,11,0.00
2013-7-7,86,64,45,58,48,40,96,65,21,0.00,40.00,3,1,9,0.00
2013-7-8,81,62,52,57,52,49,95,76,35,0.00,40.00,3,1,11,0.03
2013-7-9,89,63,44,58,47,37,96,66,17,0.00,40.00,3,1,10,0.03
2013-7-10,92,69,46,58,47,-100,94,57,22,0.00,40.00,2,1,11,0.00
2013-7-11,79,62,48,54,46,41,94,64,27,0.00,40.00,3,1,10,0.00
2013-7-12,80,58,42,49,41,32,94,63,19,0.00,40.00,4,1,10,0.00
2013-7-13,77,58,38,47,39,35,92,59,23,0.00,40.00,3,1,10,0.00
2013-7-14,85,60,38,51,41,33,93,60,16,0.00,40.00,3,1,11,0.00
2013-7-15,86,62,42,54,43,37,93,61,18,0.00,40.00,3,1,9,0.00
2013-7-16,91,81,61,62,56,49,88,46,24,0.00,40.00,5,2,14,0.00
2013-7-17,87,71,56,62,55,46,94,64,24,0.00,40.00,4,1,12,0.00
2013-7-18,90,69,47,57,47,37,95,57,16,0.00,40.00,4,1,14,0.00
2013-7-19,91,60,43,53,45,35,95,68,14,0.00,40.00,4,1,12,0.00
2013-7-20,91,64,44,55,42,-100,93,59,15,0.00,40.00,4,1,15,0.00
2013-7-21,93,64,42,52,42,31,93,59,11,0.00,40.00,3,1,10,0.00
2013-7-22,90,66,42,53,43,37,93,56,16,0.00,40.00,3,1,12,0.00
2013-7-23,94,66,43,55,44,35,94,58,13,0.00,40.00,3,1,11,0.00
2013-7-24,94,66,44,54,44,33,91,57,12,0.00,40.00,4,1,9,0.00
2013-7-25,95,70,46,54,45,38,90,54,15,0.00,40.00,3,1,15,0.00
2013-7-26,94,64,42,53,42,28,93,59,10,0.00,40.00,2,1,12,0.00
2013-7-27,85,66,45,49,43,36,89,53,19,0.00,40.00,4,1,11,0.00
2013-7-28,83,60,40,48,41,35,91,60,19,0.00,40.00,4,1,12,0.00
2013-7-29,84,61,39,51,42,32,93,59,17,0.00,40.00,4,1,12,0.00
2013-7-30,85,65,49,52,44,32,86,57,15,0.00,40.00,3,1,12,0.00
2013-7-31,93,66,45,60,48,38,93,63,15,0.00,40.00,5,1,14,0.00
2013-8-1,78,61,50,56,51,47,97,76,41,0.00,40.00,5,1,13,0.43
2013-8-2,67,58,49,56,54,48,98,87,60,0.00,40.00,4,1,11,0.56
2013-8-3,73,58,43,56,50,42,97,79,45,0.00,40.00,3,1,9,0.01
2013-8-4,84,61,42,56,49,41,97,71,26,0.00,40.00,3,1,12,0.01
2013-8-5,85,63,45,56,49,44,95,70,26,0.00,40.00,3,1,13,0.00
2013-8-6,88,63,46,57,49,41,97,69,21,0.00,40.00,3,1,10,0.00
2013-8-7,89,64,45,55,47,34,97,64,14,0.00,40.00,3,1,9,0.00
2013-8-8,88,64,44,58,48,42,96,65,23,0.00,40.00,4,1,10,0.00
2013-8-9,91,67,50,59,51,41,96,64,23,0.00,40.00,7,1,21,0.00
2013-8-10,89,70,48,63,53,46,95,60,27,0.00,40.00,2,1,10,0.06
2013-8-11,83,66,53,65,59,52,98,79,43,0.00,40.00,2,0,6,0.08
2013-8-21,88,61,36,48,40,31,94,57,15,0.00,40.00,3,1,11,0.00
2013-8-22,87,68,47,57,48,42,82,55,22,0.00,40.00,3,1,9,0.00
2013-8-23,82,66,53,60,54,48,96,70,31,0.00,40.00,3,1,10,0.02
2013-8-24,91,65,42,57,47,40,96,62,17,0.00,40.00,3,1,12,0.00
2013-8-25,86,65,47,53,48,44,92,62,25,0.00,40.00,4,1,13,0.00
2013-8-26,83,63,50,62,52,47,98,76,28,0.00,40.00,3,1,17,0.44
2013-8-27,76,52,44,54,47,43,96,88,40,0.00,40.00,1,0,7,0.00
2013-9-24,51,48,44,49,46,43,97,95,89,0.00,40.00,1,0,7,0.80
2013-9-25,48,44,42,45,43,41,97,95,87,0.00,40.00,1,0,5,0.56
2013-9-26,53,43,33,46,40,32,97,90,62,0.00,40.00,4,1,12,0.01
2013-9-27,53,41,30,45,38,29,97,89,60,0.00,40.00,2,0,12,0.06
2013-9-28,53,48,44,51,47,43,98,96,92,0.00,40.00,1,0,9,0.47
2013-9-29,54,46,43,49,44,42,98,94,79,0.00,40.00,3,1,23,0.80
2013-9-30,49,45,38,45,43,37,98,93,85,0.00,40.00,3,0,15,0.57
2013-11-9,42,33,26,39,33,26,100,98,89,0.00,40.00,2,0,5,0.01
2013-11-10,47,38,31,46,38,31,100,100,97,0.00,40.00,2,0,3,0.08
2013-11-11,55,36,29,52,35,29,100,98,88,0.00,40.00,2,0,4,0.01
2013-11-12,47,37,28,46,37,28,100,100,98,0.00,40.00,1,0,5,0.03
2013-11-13,47,40,33,45,40,33,100,99,85,0.00,40.00,2,0,4,0.01
2013-11-14,46,36,30,42,35,30,100,96,74,0.00,40.00,1,0,6,0.01
2013-11-15,41,37,33,35,33,29,100,88,67,0.00,40.00,3,1,11,0.00
2013-12-26,39,28,21,34,27,20,100,96,83,0.00,40.00,1,0,4,0.21
2013-12-27,35,26,11,32,25,9,100,96,90,0.00,40.00,1,0,4,0.05
2013-12-28,35,29,25,32,28,25,100,96,77,0.00,40.00,2,0,6,0.05
2013-12-29,31,26,18,29,25,16,100,97,87,0.00,40.00,1,0,3,0.01
2013-12-30,35,30,21,33,29,20,100,98,88,0.00,40.00,1,0,3,0.33
2013-12-31,35,33,32,35,33,32,100,100,100,0.00,40.00,1,0,3,0.12
2014-1-1,41,32,26,38,31,26,100,98,81,0.00,40.00,1,0,3,0.02